{"data":{"norad_id":64069,"intl_designator":"2025-107F","name":"STARLINK-11649 [DTC]","alt_names":[],"object_type":"PAYLOAD","status":"ACTIVE","operator":null,"country":"US","launch_date":"2025-05-21","launch_site_code":"AFETR","launch_vehicle":null,"mission":null,"orbit_class":"UNKNOWN","rcs_meters":null,"size_class":null,"mass_kg":null,"dimensions":null,"purposes":["comms"],"wikipedia_slug":null,"has_3d_model":false,"image_url":null,"decayed_at":null,"tle_current":{"epoch":"2026-05-25T01:38:52.613664Z","epoch_age_seconds":59309,"freshness":"FRESH","line1":"1 64069U 25107F   26145.06866451  .00204522  00000+0  15420-2 0  9992","line2":"2 64069  43.0040 358.4574 0002905 303.2744  56.7845 15.71092062 59308","mean_motion":15.71092062,"eccentricity":0.0002905,"inclination_deg":43.004,"raan_deg":358.4574,"arg_perigee_deg":303.2744,"mean_anomaly_deg":56.7845,"bstar":0.001542,"rev_number":5930,"period_min":91.655991066932,"perigee_km":353.81851616748,"apogee_km":357.73091887536,"semimajor_km":6733.9117175214,"source":"CELESTRAK","updated_at":"2026-05-25T13:38:20.258321Z"}}}